Regional Weather Roundup
Issued by NWS New Orleans/Baton Rouge, LA

Home | Current Version | Previous Version | Text Only | Print | Product List | Glossary On
Versions: 1 2 3 4 5 6 7 8 9 10 11 12 13 14 15 16 17 18 19 20 21 22 23 24 25 26 27 28 29 30 31 32 33 34 35 36 37 38 39 40 41 42 43 44 45 46 47 48 49 50
000
ASUS44 KLIX 291311
RWRLIX
NEW ORLEANS REGIONAL WEATHER ROUNDUP
NATIONAL WEATHER SERVICE NEW ORLEANS LA
800 AM CDT WED JUL 29 2015

NOTE: "FAIR" INDICATES FEW OR NO CLOUDS BELOW 12,000 FEET WITH NO
      SIGNIFICANT WEATHER AND/OR OBSTRUCTIONS TO VISIBILITY.
      SKY/WX - SKY CONDITION AND SIGNIFICANT WEATHER.
      TMP - AIR TEMPERATURE.     DP    - DEWPOINT TEMPERATURE.
      RH  - RELATIVE HUMIDITY.   PRES  - PRESSURE.
      HI  - HEAT INDEX.          WCI   - WIND CHILL INDEX.

*  THESE STATIONS ARE NOT NWS OR FAA STATIONS AND ARE NOT UNDER
   NWS QUALITY CONTROL.

LAZ038-040-048-061>063-065>067-069-291400-
SOUTHEAST LOUISIANA

CITY           SKY/WX    TMP DP  RH WIND       PRES   REMARKS
N.O. AUDUBON     N/A     84  78  84 MISG        N/A  HX  95
N.O. INTL ARPT PTSUNNY   84  76  76 NW8       30.03R
N.O. LAKEFRONT PTSUNNY   89  77  67 NW18      30.03R HX 101
N.O. DOWNTOWN* PTSUNNY   84  77  79 CALM      30.04R
RESERVE*         N/A     82  76  83 CALM      30.04R
SLIDELL        MOSUNNY   82  78  88 VRB3      30.03R
BATON ROUGE    SUNNY     82  76  81 NW7       30.04R
BOOTHVILLE     CLOUDY    84  76  76 NW7       30.03R
BELLE CHASSE   PTSUNNY   83  77  82 NW5       30.03R
BOGALUSA*        N/A     80  74  81 CALM      30.04R
GALLIANO*      NOT AVBL
NEW ROADS*       N/A    N/A N/A N/A NW5       30.05R
GONZALES*        N/A     82  78  90 NW6       30.04R
HAMMOND*       SUNNY     82  73  74 NW7       30.05R
HOUMA*         SUNNY     81  77  89 NW6       30.04R
PORT FOURCHON* SUNNY     84  75  74 N7        30.03R

$$

MSZ070-080>082-291400-
SOUTHERN MISSISSIPPI

CITY           SKY/WX    TMP DP  RH WIND       PRES   REMARKS
MCCOMB         SUNNY     80  75  84 NW9       30.06R
GULFPORT       MOSUNNY   83  75  77 NW6       30.01R
BILOXI         MOSUNNY   82  76  81 VRB2      30.01R
PASCAGOULA     MOSUNNY   84  77  79 SW5       30.02R
STENNIS ARPT*  MOSUNNY   81  73  78 VRB5      30.02R

$$

COASTAL OBSERVATIONS
LAKE AND NEARSHORE STATIONS

STATION/POSITION TIME  TEMP    WIND        PRES    WAVE
                       AIR SEA DIR/SP/G            HT/PER
                 (UTC) (F)     (DEG/KT/KT) (MB)    (FT/S)
PASCAGOULA       1200   82     210/ 13/ 18 1016.0
WAVELAND YACHT   1200   80 90  290/  7/ 10 1016.2
GRAND ISLE       1200   85 91  320/  9/ 10 1016.3
SOUTHWEST PASS   1200   86 86  310/  8/ 10 1016.4
NEW CANAL        1200   85 89  300/  6/ 11 1015.5
SHELL BEACH      1200   82 89  270/  6/  8 1015.5

OFFSHORE STATIONS

STATION/POSITION TIME  TEMP    WIND        PRES    WAVE
                       AIR SEA DIR/SP/G            HT/PER
                 (UTC) (F)     (DEG/KT/KT) (MB)    (FT/S)
64 S DAUPHIN ISL 1250   87 87  310/ 12/ 14 1016.4    1/ 3

$$




USA.gov is the U.S. government's official web portal to all federal, state and local government web resources and services.